Location: ??
(34.7707°N, 135.6540°E)
Time: 21:53:25
(UTC+00:00)

Cosmos 1980 Rocket - Pass Details

Date: 09 April 2020
Orbit: 829 x 850 km, 71.0° (Epoch: 24 May)

Event Time Altitude Azimuth Distance (km) Brightness Sun altitude
Rises 13:11:15 0° 344° (NNW) 3,386 6.1 -40.4°
Reaches altitude 10° 13:13:47 10° 350° (N) 2,452 5.2 -40.7°
Enters shadow 13:15:12 18° 356° (N) 1,950 4.5 -40.8°
